INTELSAT 12 (IS-12)

Last updated on May 21, 2019, 3:10 a.m. UTC

1 26590U 00068A   19140.10674500  .00000004  00000-0  00000+0 0  9997
2 26590   2.0166  88.2691 0005500 341.6043 270.2513  1.00271975 67874
UTC
Height (km)
Latitude
Longitude
Inclination
Orbital Period
UTC large
Height (km)
Speed (km/s)
/
Latitude / Longitude
Inclination (degrees)
Orbital Period (minutes)
Azimuth
Elevation
Range (km)
Doppler Factor
iOS Compass Heading
iOS Angle

Next 30 passes for location: Hong Kong

Rise time Rise Azimuth (degrees) Set time Set Azimuth (degrees) Duration Max altitude (degrees)

No matching passes for this satellites